Location: Lane
(33.5226°N, 79.8788°W)
Time: 23:55:54
(UTC+00:00)

Vanguard 2 Rocket - Pass Details

Date: 08 October 2022
Orbit: 555 x 3321 km, 32.9° (Epoch: 03 December)

Event Time Altitude Azimuth Distance (km) Brightness Sun altitude
Rises 00:48:21 0° 226° (SW) 7,223 12.0 -24.2°
Reaches altitude 10° 00:53:22 10° 222° (SW) 6,267 11.5 -25.2°
Maximum altitude 01:12:31 53° 153° (SSE) 3,390 9.4 -29.2°
Enters shadow 01:17:15 44° 113° (ESE) 3,413 9.2 -30.1°
